Regional Weather Roundup
Issued by NWS Goodland, KS

Home | Current Version | Previous Version | Graphics & Text | Print | Product List | Glossary On
Versions: 1 2 3 4 5 6 7 8 9 10 11 12 13 14 15 16 17 18 19 20 21 22 23 24 25 26 27 28 29 30 31 32 33 34 35 36 37 38 39 40 41 42 43 44 45 46 47 48 49 50
000
ASUS43 KGLD 191408
RWRGLD

GOODLAND FORECAST AREA HOURLY WEATHER ROUNDUP
NATIONAL WEATHER SERVICE GOODLAND KS
700 AM MST SUN FEB 19 2017

...OFFICIAL OBSERVATIONS...

CITY           SKY/WX    TMP DP  RH WIND       PRES   REMARKS
GOODLAND KS    CLOUDY    46  36  68 S13       29.71R
HILL CITY KS   PTCLDY    47  46  97 CALM      29.81R FOG
IMPERIAL NEB   CLOUDY    45  35  68 S12       29.68R
MCCOOK NEB     CLOUDY    47  43  86 SW5       29.74R
AKRON CO       CLOUDY    42  27  55 W13       29.67R
BURLINGTON CO  CLOUDY    50  34  54 S18       29.69S
LIMON CO       CLOUDY    41  29  62 S8G17     29.73S
$$

...UNOFFICIAL OBSERVATIONS...

CITY           SKY/WX    TMP DP  RH WIND       PRES   REMARKS
LENORA KS        N/A     45  32  60 S9          N/A
NORTON KS      CLEAR     48  43  81 S12       29.79R
SHARON SPRINGS   N/A     44  40  85 S20G26      N/A
TRIBUNE KS     CLOUDY    46  41  81 S14       29.78R
TRENTON NEB      N/A     45  32  60 S9          N/A
KIT CARSON CO    N/A     45  34  66 MISG        N/A
YUMA CO        FAIR      41  30  65 S8        29.66R
$$




USA.gov is the U.S. government's official web portal to all federal, state and local government web resources and services.